KTMK

Details ICAO KTMK
Name TILLAMOOK
Region United States
Timezone America/Los_Angeles (UTC-7.0)
Plans Departing 15
Arriving 25
Stats Elevation 36 ft / 11 m (AMSL)
Location 45.418312° -123.814201°
Runways 2
Magnetic Variation 15.393° E
Sunrise 2018-05-21 12:39:56 UTC / 2018-05-21 05:39:56 Local
Sunset 2018-05-22 03:46:40 UTC / 2018-05-21 20:46:40 Local
Advertisement - Login to hide

Runways

ID Width Length Bearing (true) Bearing (mag) Surface Threshold Offset Overrun Length
01 75 ft / 23 m 2,910 ft / 887 m 30.59° 15.20° Asphalt 0 ft / 0 m 0 ft / 0 m
13 98 ft / 30 m 5,002 ft / 1,525 m 155.82° 140.43° Asphalt 0 ft / 0 m 0 ft / 0 m
19 75 ft / 23 m 2,910 ft / 887 m 210.59° 195.20° Asphalt 0 ft / 0 m 0 ft / 0 m
31 98 ft / 30 m 5,002 ft / 1,525 m 335.83° 320.44° Asphalt 0 ft / 0 m 0 ft / 0 m

Map

Weather


0- 5 10 15 20 25 30 35+ Temperature / ° C

Clouds and Precipitation
Forecast for 2018-05-22 06:00 UTC. Updated 2 hours ago

Ground ~20,000 ft ~40,000 ft Winds

METAR

KTMK 220655Z AUTO 00000KT 10SM CLR 09/08 A3000 RMK AO2

TAF

Not found

Frequencies

Recorded 120.00 MHz AWOS 3
Approach 124.20 MHz SEATTLE APP/DEP
Unicom 122.80 MHz CTAF/UNICOM
Warning: Do not use this data for real-world aviation or navigation. No guarantee of current accuracy is given.